This is the latest recevied weather packets stored in our database for station/object K5NAN. If no packets are shown the sender has not sent any weather packets the latest 10 day(s).
| Time | Temp. | Humidity | Pressure | Rain* | Wind** | Luminosity | Snow |
|---|---|---|---|---|---|---|---|
| 1777063807 | 30° C | 62% | 1003 hPa | 0 mm | - | 676 W/m² | - |
| 1777063502 | 29.44° C | 59% | 1003.1 hPa | 0 mm | - | 682 W/m² | - |
| 1777063197 | 28.89° C | 60% | 1002.9 hPa | 0 mm | - | 761 W/m² | - |
| 1777062894 | 29.44° C | 61% | 1003.1 hPa | 0 mm | - | 688 W/m² | - |
| 1777062591 | 30° C | 60% | 1003.2 hPa | 0 mm | - | 593 W/m² | - |
| 1777062289 | 29.44° C | 62% | 1003.2 hPa | 0 mm | - | 710 W/m² | - |
| 1777061987 | 30° C | 61% | 1003.3 hPa | 0 mm | - | 779 W/m² | - |
| 1777061683 | 29.44° C | 60% | 1003.4 hPa | 0 mm | - | 770 W/m² | - |
| 1777061379 | 29.44° C | 61% | 1003.6 hPa | 0 mm | - | 780 W/m² | - |
| 1777061079 | 29.44° C | 63% | 1003.7 hPa | 0 mm | - | 789 W/m² | - |
| 1777060776 | 29.44° C | 63% | 1003.6 hPa | 0 mm | - | 805 W/m² | - |
| 1777060476 | 29.44° C | 64% | 1003.6 hPa | 0 mm | - | 819 W/m² | - |
| 1777060172 | 28.89° C | 63% | 1003.7 hPa | 0 mm | - | 817 W/m² | - |
| 1777059868 | 28.89° C | 64% | 1003.7 hPa | 0 mm | - | 836 W/m² | - |
| 1777059565 | 28.89° C | 62% | 1003.8 hPa | 0 mm | - | 814 W/m² | - |
| 1777059262 | 28.33° C | 67% | 1003.6 hPa | 0 mm | - | 854 W/m² | - |
| 1777058962 | 28.33° C | 67% | 1003.9 hPa | 0 mm | - | 862 W/m² | - |
| 1777058657 | 28.33° C | 67% | 1004 hPa | 0 mm | - | 201 W/m² | - |
| 1777058354 | 28.33° C | 64% | 1004.1 hPa | 0 mm | - | 842 W/m² | - |
| 1777058051 | 28.33° C | 63% | 1004.3 hPa | 0 mm | - | 759 W/m² | - |
| 1777057750 | 28.89° C | 65% | 1004.2 hPa | 0 mm | - | 863 W/m² | - |
| 1777057446 | 28.89° C | 65% | 1004.3 hPa | 0 mm | - | 841 W/m² | - |
| 1777057141 | 28.89° C | 65% | 1004.2 hPa | 0 mm | - | 892 W/m² | - |
* Rain latest hour (hover to see other rain measurements)
** Current wind speed in m/s (hover to see current wind gust speed)